Moab, UT

12:11 AM MST on November 18, 2019 (GMT -0700)
Canyonlands

Weather History for KCNY - May, 2019

Change the Weather History Date:

Monday, May 6, 2019

  Actual Average Record
Temperature  
Mean Temperature 65 °F 59 °F  
Max Temperature 79 °F 74 °F 93 °F (1989)
Min Temperature 50 °F 44 °F 33 °F (1978)
Degree Days  
Heating Degree Days 0 7  
Month to date heating degree days 50 44  
Since 1 July heating degree days 5620 5469  
Cooling Degree Days 0 1  
Month to date cooling degree days 0 4  
Year to date cooling degree days 2 7  
Growing Degree Days 16 (Base 50)    
Moisture  
Dew Point 33 °F    
Average Humidity 36    
Maximum Humidity 59    
Minimum Humidity 12    
Precipitation  
Precipitation 0.00 in 0.02 in 0.34 in (1973)
Month to date precipitation T 0.13  
Year to date precipitation 4.99 2.75  
Sea Level Pressure  
Sea Level Pressure 29.69 in    
Wind  
Wind Speed 8 mph (SSE)    
Max Wind Speed 22 mph    
Max Gust Speed 31 mph    
Visibility 10 miles    
Events      
T = Trace of Precipitation, MM = Missing Value Source: NWS Daily Summary

Daily Weather History Graph

Daily Weather History Graph

Search for Another Location

Airport or City:

Astronomy

May. 06, 2019 Rise Set
Actual Time 6:15 AM MDT 8:15 PM MDT
Civil Twilight 5:46 AM MDT 8:45 PM MDT
Nautical Twilight 5:11 AM MDT 9:20 PM MDT
Astronomical Twilight 4:33 AM MDT 9:59 PM MDT
Moon 7:40 AM MDT (5/6) 10:16 PM MDT (5/6)
Length of Visible Light 14h 58m
Length of Day
14h 00m
Waxing Crescent, 4% of the Moon is Illuminated
May 6
Waxing Crescent
May 11
First Quarter
May 18
Full
May 26
Last Quarter
Jun 3
New

Hourly Weather History & Observations

Time (MDT) Temp. Dew Point Humidity Pressure Visibility Wind Dir Wind Speed Gust Speed Precip Events Conditions
12:53 AM 53.1 °F 39.9 °F 61% 29.71 in 10.0 mi West 3.5 mph - N/A   Clear
1:53 AM 55.0 °F 39.9 °F 57% 29.70 in 10.0 mi NNW 11.5 mph - N/A   Clear
2:53 AM 55.0 °F 35.1 °F 47% 29.69 in 10.0 mi Calm Calm - N/A   Clear
3:53 AM 53.1 °F 37.9 °F 57% 29.70 in 10.0 mi SE 10.4 mph - N/A   Clear
4:53 AM 55.0 °F 37.0 °F 51% 29.72 in 10.0 mi East 9.2 mph - N/A   Clear
5:53 AM 53.1 °F 37.9 °F 57% 29.73 in 10.0 mi South 4.6 mph - N/A   Clear
6:53 AM 53.1 °F 39.0 °F 59% 29.74 in 10.0 mi SSE 6.9 mph - N/A   Partly Cloudy
7:53 AM 57.0 °F 39.0 °F 51% 29.75 in 10.0 mi East 4.6 mph - N/A   Clear
8:53 AM 63.0 °F 37.9 °F 40% 29.75 in 10.0 mi East 15.0 mph - N/A   Partly Cloudy
9:53 AM 66.0 °F 37.9 °F 36% 29.74 in 10.0 mi ENE 9.2 mph - N/A   Clear
10:53 AM 68.0 °F 36.0 °F 31% 29.74 in 10.0 mi ESE 6.9 mph - N/A   Clear
11:53 AM 70.0 °F 35.1 °F 28% 29.75 in 10.0 mi Variable 4.6 mph - N/A   Clear
12:53 PM 73.0 °F 33.1 °F 23% 29.72 in 10.0 mi SSE 3.5 mph - N/A   Clear
1:53 PM 75.0 °F 32.0 °F 21% 29.69 in 10.0 mi NW 4.6 mph - N/A   Clear
2:53 PM 75.9 °F 28.0 °F 17% 29.65 in 10.0 mi Variable 3.5 mph - N/A   Partly Cloudy
3:53 PM 79.0 °F 27.0 °F 15% 29.64 in 10.0 mi South 13.8 mph 28.8 mph N/A   Clear
4:53 PM 78.1 °F 21.9 °F 12% 29.62 in 10.0 mi South 17.3 mph 24.2 mph N/A   Clear
5:53 PM 78.1 °F 21.0 °F 12% 29.62 in 10.0 mi South 13.8 mph - N/A   Clear
6:53 PM 75.9 °F 21.0 °F 13% 29.62 in 10.0 mi SSE 10.4 mph - N/A   Clear
7:53 PM 72.0 °F 24.1 °F 17% 29.61 in 10.0 mi SE 4.6 mph - N/A   Clear
8:53 PM 69.1 °F 28.9 °F 22% 29.63 in 10.0 mi NW 10.4 mph - N/A   Clear
9:53 PM 66.9 °F 30.9 °F 26% 29.64 in 10.0 mi West 11.5 mph - N/A   Clear
10:53 PM 61.0 °F 35.1 °F 38% 29.68 in 10.0 mi West 4.6 mph - N/A   Clear
11:53 PM 60.1 °F 36.0 °F 41% 29.69 in 10.0 mi SW 3.5 mph - N/A   Clear